星链-32249 (STARLINK-32249)

导读 | 豆包AI

STARLINK-32249是美国太空探索技术公司 SpaceX 星链互联网卫星星座的一员,于2024年8月12日发射升空,星链旨在为全球提供高速低延迟宽带互联网服务,该卫星入轨后,将提升星链系统在目标轨道的覆盖能力,扩展全球卫星互联网服务的覆盖范围与服务容量。

Basic Information
目录编号:
60444
目录名称:
STARLINK-32249
国际标识:
2024-144V
轨道中心:
EARTH
卫星名称:
星链-32249 (STARLINK-32249)
卫星全名:
星链-32249 (STARLINK-32249)
卫星状态:
在轨 (已飞行580 天)
发射日期:
2024-08-12 UTC
国别 :
美国 (US)
星等 :
--
Orbit Information
数据来源 国际轨道数据 AOE轨道数据
星历时间 2026-03-15T08:57:40+0800
15小时前
查看轨道信息
2026-03-12T06:00:00+0800
3天前
查看轨道信息
半长轴 6853.397km 6853.349km
偏心率 0.0001298 0.0001483
轨道倾角 53.161° 53.159°
近地点辐角 97.060° 100.940°
升交点赤经 191.896° 206.405°
平近点角 263.055° 323.830°
近地点 474.37km 474.195km
远地点 476.15km 476.229km
周期 94.106分钟 94.105分钟
每日圈数 15.301852 15.302011
Detailed Information
卫星平台:
Starlink v2.0 mini
运营商:
太空探索技术公司
运营商所在国:
美国
制造商(研发单位):
太空探索技术公司
制造商所在国:
美国
使用方式:
暂无
Satellite Introduction
星链(Starlink)计划是由太空探索技术公司(SpaceX)提出的一个巨型低轨卫星互联网星座项目,计划在2019年至2024年间在太空搭建由约1.2万颗卫星组成的“星链”网络,其中1584颗将部署在地球上空550千米处的近地轨道,并从2020年开始工作。该卫星仍在工作。
2D Orbit Map
3D Orbit Map
Orbit Altitude Analysis Chart
Orbit Inclination Analysis Chart
Orbit Comprehensive Analysis Chart
View Comprehensive Chart